Flag for Germany Weather past 2 weeks in Aalen, Baden-Württemberg, Germany

Now
57 °F

Overcast.


Feels Like: 58 °F
Forecast: 44 / 66 °F
Wind: 3 mph from West

Location: Stoetten

Current Time: Aug 20, 2014 at 2:46:14 PM

Latest Report: Aug 20, 2014 at 2:00 PM


Visibility: 47 mi

Pressure: 30.01 "Hg

Humidity: 57%

Dew point: 42 °F

Location of AalenLocation

Historic Weather in Aalen — Graph

°F

Aalen temperature yesterday

Maximum temperature yesterday: 63 °F (at 5:00 PM)
Minimum temperature yesterday: 50 °F (at 1:00 AM)
Average temperature yesterday: 55 °F

Past Weeks' High & Low Weather Summary

 TemperatureHumidityPressure
High78 °F (Aug 10, 4:00 PM)100% (Aug 16, 9:00 AM)30.19 "Hg (Aug 16, 9:00 AM)
Low47 °F (Aug 20, 5:00 AM)48% (Aug 6, 5:00 PM)29.66 "Hg (Aug 13, 3:00 PM)
Average59 °F79%29.95 "Hg
* Reported Aug 5 1:00 PM — Aug 20 1:00 PM, Aalen, Weather by CustomWeather, © 2014

Note: Actual official high and low records may vary slightly from our data, if they occured in-between our weather recording intervals... More about our weather records

Advertising

Aalen weather history for previous 24 hours

 ConditionsComfort  
Time TempWeatherWind HumidityBarometerVisibility
1:00 PM
Aug 20
57 °FPartly sunny.3 mph57%30.02 "Hg47 mi
12:00 PM54 °FPartly sunny.2 mph68%30.04 "Hg47 mi
11:00 AM52 °FPartly sunny.3 mph76%30.06 "Hg47 mi
10:00 AM50 °FPartly sunny.2 mph72%30.05 "Hg47 mi
9:00 AM48 °FPartly sunny.3 mph80%30.06 "Hg43 mi
8:00 AM48 °FPartly sunny.3 mph89%30.06 "Hg40 mi
7:00 AM47 °FPartly sunny.5 mph91%30.06 "Hg37 mi
6:00 AM48 °FOvercast.3 mph90%30.06 "Hg31 mi
5:00 AM47 °FOvercast.3 mph89%30.05 "Hg12 mi
4:00 AM47 °FPassing clouds.3 mph90%30.04 "Hg15 mi
3:00 AM47 °FPassing clouds.3 mph89%30.04 "Hg14 mi
2:00 AM49 °FPassing clouds.5 mph85%30.03 "Hg16 mi
1:00 AM49 °FPassing clouds.3 mph84%30.03 "Hg17 mi
12:00 AM50 °FOvercast.3 mph82%30.02 "Hg14 mi
11:00 PM
Aug 19
52 °FClear.5 mph79%30.00 "Hg40 mi
10:00 PM53 °FOvercast.3 mph76%29.98 "Hg40 mi
9:00 PM54 °FPassing clouds.5 mph73%29.96 "Hg47 mi
8:00 PM57 °FPassing clouds.7 mph68%29.93 "Hg47 mi
7:00 PM58 °FPassing clouds.5 mph68%29.90 "Hg47 mi
6:00 PM61 °FScattered clouds.9 mph58%29.89 "Hg47 mi
5:00 PM63 °FScattered clouds.9 mph59%29.87 "Hg47 mi
4:00 PM62 °FScattered clouds.7 mph63%29.88 "Hg47 mi
3:00 PM60 °FPartly sunny.6 mph70%29.88 "Hg47 mi
2:00 PM60 °FPartly sunny.5 mph70%29.88 "Hg47 mi
Weather by CustomWeather, © 2014

See weather overviewHow to use our weather pages